Palmer, AK

10:48 AM AKDT on May 25, 2017 (GMT -0800)
Palmer Municipal

Weather History for PAAQ - February, 2012

Change the Weather History Date:

Tuesday, February 21, 2012

  Actual Average Record
Temperature  
Mean Temperature 24 °F -  
Max Temperature 28 °F 24 °F 43 °F (1997)
Min Temperature 21 °F 6 °F -20 °F (1990)
Degree Days  
Heating Degree Days 40    
Moisture  
Dew Point 21 °F    
Average Humidity 83    
Maximum Humidity 96    
Minimum Humidity 63    
Precipitation  
Precipitation 0.08 in - - ()
Sea Level Pressure  
Sea Level Pressure 29.24 in    
Wind  
Wind Speed 6 mph (North)    
Max Wind Speed 10 mph    
Max Gust Speed -    
Visibility 4 miles    
Events Snow    
Averages and records for this station are not official NWS values.
T = Trace of Precipitation, MM = Missing Value Source: NWS Daily Summary

Daily Weather History Graph

Daily Weather History Graph

Search for Another Location

Airport or City:

Trip Planner

Search our weather history database for the weather conditions in past years. The results will help you decide how hot, cold, wet, or windy it might be!

Date:

Astronomy

Feb. 21, 2012 Rise Set
Actual Time 8:23 AM AKST 5:57 PM AKST
Civil Twilight 7:38 AM AKST 6:43 PM AKST
Nautical Twilight 6:47 AM AKST 7:33 PM AKST
Astronomical Twilight 5:56 AM AKST 8:24 PM AKST
Moon 7:45 AM AKST (2/21) 6:34 PM AKST (2/21)
Length of Visible Light 11h 04m
Length of Day
9h 34m
Waning Crescent, 0% of the Moon is Illuminated
Feb 21
Waning Crescent
Feb 21
New
Feb 29
First Quarter
Mar 8
Full
Mar 14
Last Quarter

Hourly Weather History & Observations

Time (AKST) Temp. Windchill Dew Point Humidity Pressure Visibility Wind Dir Wind Speed Gust Speed Precip Events Conditions
12:53 AM 28.0 °F - 18.0 °F 66% 28.98 in 9.0 mi Calm Calm - 0.00 in Snow Light Snow
1:53 AM 26.1 °F 19.4 °F 19.9 °F 78% 29.01 in 10.0 mi NNE 5.8 mph - 0.00 in   Overcast
2:53 AM 26.1 °F 18.4 °F 16.0 °F 66% 29.04 in 10.0 mi North 6.9 mph - N/A   Overcast
3:53 AM 26.1 °F 19.4 °F 15.1 °F 63% 29.06 in 10.0 mi North 5.8 mph - N/A   Overcast
4:48 AM 26.6 °F 20.0 °F 15.8 °F 64% 29.08 in 10.0 mi North 5.8 mph - N/A   Overcast
4:53 AM 25.0 °F 18.1 °F 15.1 °F 66% 29.08 in 10.0 mi North 5.8 mph - N/A   Overcast
5:29 AM 24.8 °F 16.1 °F 15.8 °F 69% 29.09 in 10.0 mi NNW 8.1 mph - N/A   Overcast
5:53 AM 24.1 °F 14.4 °F 15.1 °F 69% 29.08 in 10.0 mi NNW 9.2 mph - N/A   Overcast
6:53 AM 23.0 °F 13.1 °F 14.0 °F 68% 29.10 in 10.0 mi NNW 9.2 mph - N/A   Overcast
7:02 AM 23.0 °F 13.1 °F 12.2 °F 63% 29.11 in 10.0 mi North 9.2 mph - N/A   Overcast
7:17 AM 23.0 °F 13.1 °F 12.2 °F 63% 29.12 in 10.0 mi North 9.2 mph - N/A   Overcast
7:53 AM 23.0 °F 14.7 °F 14.0 °F 68% 29.12 in 10.0 mi North 6.9 mph - N/A   Overcast
8:42 AM 21.2 °F 10.9 °F 14.0 °F 74% 29.15 in 1.8 mi North 9.2 mph - 0.00 in Snow Light Snow
8:53 AM 21.9 °F 12.5 °F 15.1 °F 75% 29.15 in 1.0 mi North 8.1 mph - 0.00 in Snow Light Snow
9:13 AM 21.2 °F 10.1 °F 15.8 °F 80% 29.15 in 2.0 mi NNW 10.4 mph - 0.00 in Snow Light Snow
9:24 AM 21.2 °F 10.1 °F 15.8 °F 80% 29.15 in 4.0 mi NNW 10.4 mph - 0.00 in Snow Light Snow
9:35 AM 21.2 °F 10.9 °F 15.8 °F 80% 29.15 in 7.0 mi NNW 9.2 mph - 0.00 in Snow Light Snow
9:53 AM 21.9 °F 11.0 °F 15.1 °F 75% 29.15 in 5.0 mi North 10.4 mph - 0.00 in Snow Light Snow
10:24 AM 21.2 °F 10.1 °F 15.8 °F 80% 29.17 in 2.5 mi North 10.4 mph - 0.00 in Snow Light Snow
10:33 AM 21.2 °F 10.1 °F 15.8 °F 80% 29.17 in 4.0 mi North 10.4 mph - 0.00 in Snow Light Snow
10:50 AM 21.2 °F 10.1 °F 17.6 °F 86% 29.18 in 2.5 mi North 10.4 mph - 0.00 in Snow Light Snow
10:53 AM 21.9 °F 11.7 °F 17.1 °F 82% 29.18 in 2.5 mi North 9.2 mph - 0.00 in Snow Light Snow
11:20 AM 23.0 °F 13.1 °F 17.6 °F 80% 29.20 in 1.8 mi North 9.2 mph - 0.00 in Snow Light Snow
11:31 AM 23.0 °F 12.4 °F 17.6 °F 80% 29.20 in 2.0 mi North 10.4 mph - 0.00 in Snow Light Snow
11:53 AM 24.1 °F 15.2 °F 19.0 °F 81% 29.20 in 2.0 mi North 8.1 mph - 0.00 in Snow Light Snow
12:18 PM 24.8 °F 15.3 °F 19.4 °F 80% 29.22 in 1.0 mi North 9.2 mph - 0.00 in Snow Light Snow
12:51 PM 24.8 °F 19.1 °F 21.2 °F 86% 29.23 in 2.0 mi NW 4.6 mph - 0.00 in Snow Light Snow
1:00 PM 24.8 °F 16.9 °F 21.2 °F 86% 29.24 in 1.5 mi NNW 6.9 mph - 0.00 in Snow Light Snow
1:53 PM 26.1 °F 18.4 °F 23.0 °F 88% 29.25 in 1.0 mi North 6.9 mph - 0.01 in Snow Light Snow
2:53 PM 27.0 °F 20.5 °F 24.1 °F 89% 29.27 in 0.8 mi North 5.8 mph - 0.01 in Snow Light Snow
3:00 PM 26.6 °F 20.0 °F 24.8 °F 93% 29.27 in 1.0 mi NNW 5.8 mph - 0.00 in Snow Light Snow
3:21 PM 26.6 °F 20.0 °F 24.8 °F 93% 29.29 in 0.8 mi North 5.8 mph - 0.01 in Snow Light Snow
3:35 PM 26.6 °F 20.0 °F 24.8 °F 93% 29.29 in 1.0 mi North 5.8 mph - 0.01 in Snow Light Snow
3:50 PM 26.6 °F 20.0 °F 24.8 °F 93% 29.30 in 0.8 mi North 5.8 mph - 0.01 in Snow Light Snow
3:53 PM 27.0 °F 20.5 °F 24.1 °F 89% 29.29 in 0.8 mi North 5.8 mph - 0.01 in Snow Light Snow
4:08 PM 26.6 °F 19.1 °F 24.8 °F 93% 29.31 in 0.8 mi North 6.9 mph - 0.01 in Snow Light Snow
4:30 PM 26.6 °F 20.0 °F 24.8 °F 93% 29.31 in 1.0 mi North 5.8 mph - 0.01 in Snow Light Snow
4:53 PM 27.0 °F 21.6 °F 26.1 °F 96% 29.31 in 0.8 mi North 4.6 mph - 0.02 in Snow Light Snow
5:03 PM 28.4 °F 22.2 °F 26.6 °F 93% 29.32 in 1.5 mi North 5.8 mph - 0.00 in Snow Light Snow
5:33 PM 28.4 °F 23.3 °F 26.6 °F 93% 29.33 in 0.8 mi North 4.6 mph - 0.01 in Snow Light Snow
5:43 PM 28.4 °F 22.2 °F 26.6 °F 93% 29.34 in 0.8 mi North 5.8 mph - 0.01 in Snow Light Snow
5:53 PM 28.0 °F 22.8 °F 26.1 °F 92% 29.34 in 0.8 mi North 4.6 mph - 0.01 in Snow Light Snow
6:18 PM 28.4 °F 23.3 °F 26.6 °F 93% 29.35 in 1.2 mi North 4.6 mph - 0.01 in Snow Light Snow
6:40 PM 28.4 °F 23.3 °F 26.6 °F 93% 29.36 in 2.0 mi North 4.6 mph - 0.01 in Snow Light Snow
6:47 PM 28.4 °F 22.2 °F 26.6 °F 93% 29.37 in 3.0 mi North 5.8 mph - 0.01 in Snow Light Snow
6:53 PM 28.0 °F 22.8 °F 26.1 °F 92% 29.37 in 2.5 mi NNE 4.6 mph - 0.01 in Snow Light Snow
7:11 PM 28.4 °F 24.6 °F 26.6 °F 93% 29.38 in 2.0 mi North 3.5 mph - 0.00 in Snow Light Snow
7:18 PM 28.4 °F 23.3 °F 26.6 °F 93% 29.38 in 1.5 mi North 4.6 mph - 0.01 in Snow Light Snow
7:29 PM 28.4 °F 23.3 °F 26.6 °F 93% 29.39 in 2.5 mi NNE 4.6 mph - 0.01 in Snow Light Snow
7:53 PM 28.0 °F 24.2 °F 27.0 °F 96% 29.39 in 3.0 mi NNE 3.5 mph - 0.01 in Snow Light Snow
8:46 PM 28.4 °F - 26.6 °F 93% 29.42 in 5.0 mi Calm Calm - 0.00 in Snow Light Snow
8:53 PM 28.0 °F - 27.0 °F 96% 29.42 in 5.0 mi Calm Calm - 0.00 in Snow Light Snow
9:53 PM 28.0 °F - 27.0 °F 96% 29.45 in 8.0 mi Calm Calm - 0.00 in Snow Light Snow
10:53 PM 28.0 °F 21.7 °F 24.1 °F 85% 29.48 in 10.0 mi North 5.8 mph - 0.00 in   Overcast
11:53 PM 28.9 °F 22.8 °F 24.1 °F 82% 29.52 in 10.0 mi North 5.8 mph - N/A   Overcast